Dewpoint
59 58 58 57 56 55 55 55 54 54 54 54 54 52 51 51 50 49 51 51 51 49 49 50 51 51 50 50 49 49 48 48 48 49 48 48 47 48 48 48 48 47 48 47 48 47 47 47 47 48 48 46 45 46 46 46 46 45 44 42 41 40 37 36 34 34 34 41 40 40 41 45 43 43 44 44 44 49 48 44 46 44 42 41 42
59 58 58 57 56 55 55 55 54 53 54 54 53 53 52 51 51 51 50 51 50 49 49 51 51 51 50 50 50 49 48 48 50 49 48 48 47 49 46 46 47 46 46 46 46 48 47 46 46 49 49 48 46 43 44 44 43 42 40 40 38 38 37 36 35 33 33 36 36 38 37 39 39 34 40 39 40 47 45 43 43 42 42 41 40
58 58 58 58 57 57 56 55 54 53 54 54 53 53 52 51 52 50 50 51 51 50 51 51 51 50 50 51 52 50 50 50 50 49 48 49 49 47 47 47 46 46 46 46 46 47 47 47 46 48 49 48 48 47 47 45 43 41 42 40 38 37 36 35 36 35 34 35 38 35 36 36 35 32 33 36 39 41 41 42 40 40 42 41 38
57 56 57 58 58 57 56 57 54 53 54 54 53 53 53 52 52 51 50 50 51 51 51 51 51 50 50 51 51 51 51 50 49 49 49 49 48 47 48 46 46 46 46 46 47 47 47 45 45 48 48 48 48 47 47 47 47 46 46 46 42 41 40 38 35 37 37 35 39 36 39 37 36 39 38 42 42 39 40 42 41 39 41 42 39
56 57 57 58 57 57 57 57 57 56 54 54 54 54 52 52 52 51 51 50 51 52 52 51 51 50 51 50 50 50 52 51 48 48 50 50 49 49 48 47 48 47 47 47 51 47 47 45 46 48 48 49 47 47 47 47 47 48 48 48 47 47 47 44 43 41 38 36 37 41 43 41 39 39 40 41 42 42 42 42 42 42 42 44 43
56 56 57 57 57 57 57 56 56 57 57 54 54 53 53 52 52 53 51 50 51 52 51 51 51 50 50 50 50 50 52 50 48 48 50 50 49 49 49 50 50 50 49 50 50 49 47 46 48 50 49 49 48 48 47 48 48 48 48 48 47 46 46 46 45 41 36 37 39 41 43 41 39 42 41 42 43 42 42 43 43 45 43 42 43
55 55 55 55 57 57 56 56 56 56 56 56 55 54 53 53 52 53 53 50 50 52 50 50 51 50 50 50 50 51 51 51 49 49 50 51 51 50 50 51 52 52 52 51 51 51 51 50 49 50 50 50 49 48 48 47 48 47 47 47 46 46 46 45 46 43 41 41 43 43 43 43 42 41 43 44 43 43 42 41 40 42 43 42 43
56 55 55 55 55 55 56 57 56 56 56 56 55 55 55 54 54 53 54 52 51 52 50 49 50 50 50 50 50 51 50 51 50 50 51 52 51 51 52 53 53 52 52 52 52 51 52 51 51 51 51 51 49 49 48 47 46 46 46 46 45 45 45 45 46 45 45 44 42 42 43 42 43 44 45 43 42 41 43 41 39 40 41 42 41
56 56 55 55 55 54 55 56 55 55 55 55 54 54 55 55 55 55 54 54 54 53 50 49 51 50 50 50 50 51 51 51 52 52 52 53 53 53 53 53 53 53 52 52 53 52 52 52 52 52 54 54 52 50 50 50 48 46 46 46 45 46 45 45 45 45 44 44 43 43 42 42 41 42 41 41 40 40 40 41 40 40 41 40 40
55 55 56 56 56 56 56 56 56 55 55 55 54 54 54 54 55 55 55 55 54 54 54 54 53 52 53 52 52 52 52 52 53 51 51 54 54 54 54 54 53 53 53 52 52 53 52 52 53 59 55 53 50 47 46 47 48 47 47 46 46 45 45 45 44 44 44 44 43 43 43 42 41 40 40 41 41 40 41 40 39 39 38 37 39
55 55 55 56 56 55 56 56 56 55 55 55 55 55 55 55 54 55 55 54 54 53 54 53 53 53 53 53 52 52 53 53 47 47 48 50 54 54 54 53 53 53 53 52 52 53 51 52 53 53 51 51 48 44 44 44 45 45 46 47 48 46 46 45 45 44 44 43 42 43 43 42 41 41 41 41 41 40 39 39 39 38 37 34 33
55 55 55 56 56 55 55 55 55 55 55 55 55 54 54 55 55 54 54 54 54 52 53 53 53 52 52 52 52 52 52 51 42 45 46 48 50 54 53 53 53 53 53 52 52 52 53 53 52 53 51 49 47 44 43 42 41 41 40 41 42 44 45 46 46 44 44 43 43 43 43 42 42 42 41 40 40 39 39 38 37 37 35 34 34
43 48 53 55 55 54 55 55 54 54 54 54 54 54 54 53 53 53 54 54 53 52 52 52 52 53 53 52 52 52 52 46 42 43 45 45 47 51 54 54 53 53 53 53 52 52 52 52 53 53 54 53 50 44 41 40 40 39 39 39 39 40 41 43 44 46 45 44 44 42 43 43 42 42 43 41 40 38 37 36 36 35 35 32 32
36 36 36 37 44 51 53 53 53 54 54 54 53 53 53 53 52 52 54 54 53 52 52 51 52 52 52 52 52 52 52 47 41 43 42 42 43 49 54 53 53 53 53 53 53 53 53 53 53 53 53 53 48 44 42 40 40 40 40 40 38 40 40 39 41 42 44 45 45 44 43 43 42 41 43 40 38 37 36 35 36 34 34 30 32
37 37 37 37 38 40 42 44 48 51 52 52 52 51 52 52 52 52 52 53 53 52 52 51 52 51 51 52 52 52 52 45 41 41 41 41 41 46 52 52 52 52 53 53 53 53 53 53 53 53 53 53 49 45 43 42 42 41 39 39 42 42 41 42 43 44 45 45 44 45 44 42 40 39 40 41 39 38 37 35 36 33 33 35 34
37 38 37 37 37 38 40 41 43 45 44 44 45 47 50 51 52 53 52 52 51 50 50 49 49 50 51 51 51 52 52 45 41 40 41 41 41 48 51 52 52 52 52 52 52 53 53 53 53 52 52 53 49 43 43 45 43 42 40 42 40 37 37 38 37 41 45 45 43 42 40 39 38 38 39 39 40 39 37 36 36 35 33 32 30
35 36 37 38 38 38 39 40 41 39 39 39 39 41 42 45 46 50 51 51 50 50 51 51 50 49 49 50 51 52 51 46 41 40 40 40 41 49 50 51 52 51 52 52 53 52 52 53 53 52 52 52 48 41 41 43 45 43 43 42 40 38 36 36 36 37 38 38 38 37 37 37 37 37 38 38 37 35 34 32 31 32 32 30 32
35 36 36 36 37 37 38 37 38 38 37 38 38 38 39 39 40 44 45 45 46 46 48 49 50 50 50 50 52 51 51 49 41 41 40 39 45 50 50 51 52 52 51 51 51 50 50 52 54 52 52 52 45 41 40 44 45 44 43 42 40 38 36 36 36 35 36 36 36 35 35 36 36 36 37 37 37 38 33 31 31 33 33 32 31
36 36 36 36 36 37 37 37 37 37 37 37 38 38 38 39 39 40 41 42 43 44 44 46 48 48 49 49 52 51 51 50 43 40 40 39 44 50 50 51 51 51 50 48 43 42 42 46 49 51 51 49 42 41 40 44 46 44 43 42 41 39 37 35 34 33 33 32 31 32 33 35 36 35 37 36 37 39 35 34 34 33 33 33 33
36 36 37 37 37 37 37 37 38 38 37 37 37 38 38 37 37 38 38 39 39 40 41 42 43 45 47 49 49 51 51 51 48 41 40 40 42 50 51 51 50 49 48 48 44 41 40 40 43 44 45 42 41 41 40 42 46 45 43 42 41 41 40 36 36 34 35 36 34 35 37 37 34 35 35 34 36 39 35 36 36 36 35 33 33
36 36 36 36 37 36 36 36 37 37 37 37 37 37 37 37 37 37 37 37 37 37 38 38 40 42 43 45 47 48 50 51 50 41 41 41 41 45 51 52 51 49 48 46 44 44 42 40 39 40 40 40 40 40 40 42 43 45 44 43 43 43 40 38 39 39 39 39 38 37 36 36 35 36 36 35 36 36 36 36 35 34 33 32 30
36 36 36 36 37 36 36 36 37 38 37 37 36 36 36 36 36 36 36 36 36 36 36 37 38 39 41 42 44 46 49 50 51 44 40 41 41 41 49 52 50 49 47 45 43 42 42 40 39 38 38 39 39 40 41 41 41 45 44 40 38 38 40 40 40 40 39 38 38 37 35 34 34 36 37 38 38 38 35 34 35 34 33 33 32
36 36 36 36 37 36 37 36 37 38 37 36 36 35 36 35 35 35 35 35 35 35 36 36 37 37 38 38 40 41 44 47 46 46 40 40 39 39 40 45 44 48 48 46 43 42 39 38 38 38 37 37 36 37 37 38 39 39 37 37 37 37 39 39 38 38 37 36 34 33 33 33 34 33 36 37 36 35 34 34 34 34 34 34 34
36 36 36 36 36 36 36 36 36 36 36 36 36 35 35 35 35 35 35 34 34 35 35 35 35 35 35 36 37 40 44 45 43 42 41 38 39 39 39 39 40 45 47 46 43 41 39 38 38 35 35 35 34 34 34 35 35 35 36 36 36 37 38 37 36 36 34 33 32 32 32 31 32 32 33 34 32 32 33 33 33 32 32 32 31
36 35 35 35 35 35 36 36 36 36 36 36 35 35 35 35 35 34 35 34 34 34 34 34 34 34 35 35 37 40 43 43 41 38 38 38 38 38 38 38 39 37 43 44 42 41 38 37 36 34 34 33 33 33 32 32 32 32 33 34 37 35 36 36 35 33 32 32 32 32 32 31 31 32 32 33 32 32 32 32 31 30 31 30 30
35 35 35 35 35 35 35 35 35 35 35 35 36 36 35 35 35 35 34 34 34 34 33 34 34 34 34 34 36 39 41 43 42 39 39 39 38 37 38 38 39 40 39 41 39 38 37 36 34 34 33 34 35 33 31 31 33 34 35 36 35 36 33 33 31 31 31 31 31 30 30 31 31 32 31 32 31 30 30 29 29 29 29 30 29
35 34 34 34 34 34 33 34 34 34 33 34 34 35 34 34 34 34 33 33 33 33 33 33 33 33 33 34 36 38 39 40 42 40 40 38 38 38 37 37 38 37 40 39 38 37 35 36 35 34 34 34 34 33 33 32 33 34 34 33 32 31 31 30 30 31 31 30 30 30 30 30 31 30 29 30 30 29 29 30 28 28 29 28 28
33 33 33 34 34 34 33 33 34 33 33 33 33 33 34 34 34 33 33 33 33 33 33 33 33 33 33 34 35 36 37 38 40 41 40 40 39 38 38 38 39 39 39 38 36 37 36 35 34 35 35 35 33 30 30 29 30 32 33 31 31 32 34 34 33 30 29 29 29 28 27 29 28 28 28 29 28 29 29 29 28 28 28 27 28
33 33 33 34 34 34 34 34 34 34 34 34 33 33 33 34 34 34 33 34 33 33 33 33 34 33 33 35 35 35 35 37 38 38 38 40 37 38 37 36 37 38 38 35 36 35 36 36 33 34 30 31 29 28 29 32 32 33 32 29 29 30 29 27 28 28 28 28 28 28 27 27 27 27 29 28 28 27 27 28 27 28 27 28 28
33 33 33 33 33 33 34 34 34 34 34 34 35 35 33 35 34 33 33 34 34 34 34 32 34 34 34 35 35 35 36 37 36 36 36 38 38 37 37 37 37 37 35 34 35 33 32 31 30 29 29 29 29 29 30 31 32 31 31 31 30 29 28 27 27 27 27 28 27 27 26 26 26 27 26 27 27 27 28 30 27 27 27 27 26
32 33 32 32 33 34 33 33 34 34 35 34 35 34 35 34 35 35 34 35 35 34 34 34 34 34 35 34 35 35 35 35 35 36 37 38 38 37 36 36 35 34 34 33 32 32 32 31 30 30 29 31 28 30 31 31 30 30 30 29 29 28 28 27 27 26 27 26 25 25 24 27 26 25 24 25 26 27 27 27 27 27 27 27 27
31 31 32 33 34 33 33 33 34 34 35 34 34 34 35 35 36 35 35 35 35 35 35 34 34 34 35 35 36 35 34 35 35 35 36 37 37 36 36 35 34 34 33 33 32 31 31 30 30 30 32 31 30 31 32 31 30 29 29 28 27 28 28 27 26 27 25 26 24 23 23 24 26 24 23 24 24 25 26 26 26 27 27 27 29
33 33 32 33 33 33 33 34 34 34 34 34 34 34 34 35 35 34 33 34 35 35 35 35 35 34 35 35 35 35 35 35 35 35 35 36 37 36 35 34 34 33 33 33 32 31 31 32 32 33 33 33 33 33 33 33 31 30 30 28 27 25 27 25 25 27 26 25 25 23 22 22 23 23 24 24 24 24 25 26 25 27 27 28 28
35 35 35 33 32 33 32 33 33 32 32 32 32 33 34 34 34 33 33 33 33 34 35 35 34 34 35 35 35 35 35 35 35 35 35 35 37 37 34 33 34 34 33 33 33 32 33 34 35 35 36 36 34 33 33 32 31 30 29 28 28 27 27 27 27 27 26 25 26 24 23 22 23 22 21 22 23 23 23 25 26 26 26 28 29
34 34 34 34 32 32 31 31 32 32 33 33 34 34 34 34 34 34 33 33 33 33 34 32 33 34 34 34 34 35 35 35 34 35 35 35 36 36 34 34 32 32 33 32 34 34 34 34 35 35 36 34 34 33 33 33 31 30 30 29 27 27 28 28 27 26 26 26 27 26 24 25 25 23 23 23 23 24 24 25 25 27 28 29 30
33 32 33 32 31 31 32 32 33 34 34 34 34 34 34 34 34 34 33 33 33 33 33 33 33 34 34 34 35 35 34 34 34 35 35 35 36 35 35 34 34 34 34 34 33 33 33 34 34 35 37 36 34 33 33 32 31 30 28 28 28 28 27 27 26 26 26 27 26 26 27 26 25 25 24 24 23 23 24 25 26 27 27 28 30
33 32 31 31 31 31 31 31 33 34 33 32 32 34 34 34 32 31 31 32 33 33 34 34 34 34 34 33 34 34 34 34 34 35 35 35 36 36 38 36 35 35 34 33 32 33 34 33 35 35 36 35 34 34 32 31 29 28 29 27 28 28 27 27 27 27 27 27 26 26 26 24 24 23 24 23 24 23 23 24 25 28 30 31 31
34 32 31 31 30 31 31 32 33 33 33 32 32 32 33 34 34 33 32 33 33 33 34 35 34 34 33 34 37 34 32 33 33 33 34 35 35 36 37 36 35 34 34 32 32 34 34 34 35 35 35 35 34 33 32 30 28 27 28 28 28 28 30 29 28 27 27 27 26 25 25 24 23 23 23 21 24 23 23 26 28 30 31 31 31
33 32 33 32 32 31 32 32 33 32 32 32 32 32 32 32 33 33 34 34 34 34 33 34 34 34 35 35 34 33 31 30 30 30 32 34 35 35 35 36 35 33 33 33 34 34 35 34 34 35 35 35 33 33 31 29 28 27 27 26 27 27 28 27 28 27 27 26 24 22 22 21 20 20 22 23 24 25 27 30 31 31 31 31 31
31 31 32 32 31 31 32 32 32 31 31 32 33 32 32 31 32 33 34 34 33 33 32 33 33 34 34 34 34 32 29 30 31 31 32 32 32 33 34 34 34 34 34 34 35 35 35 34 34 34 34 34 34 33 31 29 28 27 27 27 27 27 26 26 27 27 26 24 23 21 21 21 20 21 22 24 27 29 30 31 31 31 31 31 31
30 31 32 32 31 31 33 32 32 31 31 32 31 32 31 31 31 31 32 32 32 32 32 32 32 32 32 33 33 32 31 32 32 30 30 31 32 33 33 33 33 34 34 33 32 33 32 32 32 32 31 31 31 30 30 29 29 29 29 29 28 28 26 25 25 25 24 23 22 22 21 21 21 20 22 25 31 31 31 31 31 31 31 31 31
30 31 32 32 30 31 33 33 33 33 34 32 32 31 31 30 30 30 30 31 31 31 30 30 31 31 32 33 33 33 33 33 33 32 31 33 34 34 34 34 35 34 33 33 33 32 32 32 31 31 30 29 29 29 30 29 29 29 29 28 28 27 26 25 23 22 22 22 21 22 21 22 23 23 24 30 26 30 30 31 31 31 31 31 31
31 32 33 32 31 30 30 32 33 33 32 32 31 32 32 32 31 30 30 30 31 30 29 30 30 31 31 32 32 32 33 33 32 33 32 32 32 32 32 32 32 32 32 32 32 31 29 29 29 29 29 29 29 29 29 29 29 28 28 27 27 26 25 23 22 21 21 22 23 23 21 21 23 23 24 26 26 29 30 30 31 31 31 31 31
31 31 32 32 31 31 30 31 32 32 32 31 32 31 32 32 31 31 31 30 31 30 30 30 30 30 30 31 32 32 31 31 31 31 31 31 32 31 31 31 31 30 30 30 30 30 29 29 29 29 30 30 30 30 29 29 28 28 27 26 26 25 23 22 21 19 21 21 22 22 21 22 23 23 27 29 29 30 30 30 31 31 31 31 31
31 30 30 31 32 31 31 30 30 31 31 31 31 32 33 32 31 32 32 32 32 31 30 30 31 31 31 31 31 31 31 31 31 31 31 31 31 31 30 31 30 30 30 30 30 31 30 29 30 30 29 29 29 29 28 28 27 27 27 26 26 25 21 20 18 17 18 21 21 21 21 21 20 23 26 27 28 29 31 31 31 31 31 31 31
30 30 30 30 29 30 30 30 30 32 32 32 32 33 33 33 33 33 33 33 32 32 31 31 31 31 31 31 31 31 31 30 30 30 30 30 30 31 31 31 31 31 31 30 31 31 30 30 30 29 29 28 27 26 25 25 25 25 25 24 24 22 20 19 17 20 20 19 20 19 21 21 21 25 28 28 29 30 31 31 31 31 31 31 31
30 29 29 29 29 30 31 32 32 31 31 31 32 32 32 33 33 33 33 33 32 32 32 32 32 31 31 31 31 31 31 31 31 31 31 31 32 32 32 32 32 32 32 32 32 31 31 30 30 29 28 27 25 24 24 24 24 24 25 25 25 24 22 20 19 19 20 20 19 18 18 20 21 23 26 29 30 30 30 31 31 31 31 31 31
30 29 29 30 30 31 31 30 30 31 29 29 30 31 32 33 33 33 33 33 33 32 31 31 31 31 31 31 31 31 31 31 31 31 32 32 32 32 32 31 31 31 31 31 31 31 31 30 30 29 28 27 26 24 24 24 24 24 24 24 25 26 26 26 24 24 23 22 21 21 21 20 20 21 24 26 26 28 29 30 31 31 31 31 31
30 29 30 29 29 29 29 29 30 29 29 29 29 29 31 32 33 33 33 33 33 32 32 31 31 31 31 31 31 31 31 31 31 31 31 31 31 31 31 31 31 31 30 30 30 30 30 29 29 28 26 25 24 24 24 24 23 23 23 24 24 25 25 26 26 26 27 26 25 24 24 23 23 23 23 23 25 27 30 30 30 31 31 31 31
31 30 29 29 29 29 29 30 29 28 28 28 29 28 28 30 30 32 33 33 33 33 32 32 32 31 31 31 31 31 32 32 32 32 32 31 31 31 31 31 31 30 30 29 29 29 28 27 26 25 24 24 23 22 22 21 22 22 22 23 24 24 24 25 25 26 26 26 27 26 26 25 25 24 23 22 22 25 28 30 30 31 31 30 30
31 31 29 29 29 29 28 29 28 28 28 27 26 28 28 28 29 31 33 33 33 31 31 32 33 33 32 31 31 31 31 32 32 32 32 31 31 31 31 30 30 30 29 28 28 27 26 26 25 25 24 23 21 20 19 18 17 17 20 20 20 20 20 21 19 21 22 23 22 24 25 25 24 24 24 23 22 23 28 29 30 30 30 30 30